[[{"header":{"parameterUnit":"m.s-1","parameterCategory":1,"la1":30.2991,"la2":30.254,"lo1":-89.0895,"lo2":-89.0444,"dy":0.0017,"dx":0.0017,"nx":28,"ny":28,"refTime":"2024-03-11T21:00:00:Z","depth":0,"parameterNumber":2,"parameterNumberName":"U-component_of_WINDS"},"data":[0,0,0,0,0,0,0,0,0,0,0,0,0,0,0,0,0,0,0,0,0,0,0,0,0,0,0,0,0,0,0,0,0,0,0,0,0,0,0,0,0,0,0,0,0,0,0,0,0,0,0,0,0,0,0,0,0,0,-2.7535,-2.7536,0,-2.756,-2.756,-2.756,-2.7501,-2.7499,-2.7497,-2.7495,-2.7521,-2.7524,-2.7526,0,0,0,0,0,0,0,0,0,0,0,0,0,-2.7437,-2.7439,-2.7535,-2.7536,-2.7536,-2.756,-2.756,-2.756,-2.7501,-2.7499,-2.7497,-2.7494,-2.7521,-2.7523,-2.7526,0,0,0,0,0,0,0,0,0,0,0,0,0,-2.7473,-2.744,-2.7535,-2.7509,-2.7507,-2.756,-2.756,-2.7561,-2.7502,-2.7499,-2.7496,-2.7493,-2.752,-2.7523,-2.7527,-2.7606,0,0,-2.7538,-2.754,0,0,0,0,0,0,0,0,-2.7471,-2.7476,-2.7513,-2.7511,-2.7509,-2.7524,-2.7535,-2.7576,-2.7502,-2.7504,-2.7495,-2.7492,-2.7525,-2.7528,-2.7539,-2.7607,-2.7608,-2.7538,-2.7541,-2.7542,-2.7543,0,0,0,0,0,0,0,-2.7468,-2.7475,-2.7545,-2.7513,-2.7511,-2.7496,-2.7498,-2.7542,-2.753,-2.7503,-2.7499,-2.7503,-2.7523,-2.7535,-2.7539,-2.7609,-2.7538,-2.7542,-2.7544,-2.7545,-2.7741,-2.7744,0,0,0,0,0,0,-2.7469,-2.7473,-2.7544,-2.7546,-2.7482,-2.75,-2.7502,-2.7522,-2.7529,-2.7528,-2.7505,-2.75,-2.753,-2.7535,-2.754,-2.7631,-2.7542,-2.7546,-2.7548,-2.7738,-2.7742,-2.7745,0,0,0,0,0,0,-2.7467,-2.7476,-2.7543,-2.7508,-2.7516,-2.7505,-2.7528,-2.7524,-2.7536,-2.7531,-2.7528,-2.752,-2.7528,-2.7534,-2.7589,-2.7631,-2.7547,-2.7551,-2.7735,-2.774,-2.7744,-2.7816,0,0,0,0,0,0,-2.7465,-2.7476,-2.7506,-2.751,-2.7518,-2.7593,-2.753,-2.7527,-2.7543,-2.7536,-2.7544,-2.7542,-2.7527,-2.7584,-2.7593,-2.7635,-2.7553,-2.7731,-2.7737,-2.7742,-2.781,-2.7822,-2.7833,0,0,0,0,0,-2.7461,-2.7526,-2.7508,-2.7517,-2.7555,-2.7596,-2.76,-2.7581,-2.7546,-2.7576,-2.7572,-2.7542,-2.7625,-2.759,-2.76,-2.7643,-2.7728,-2.7735,-2.7742,-2.7804,-2.782,-2.7833,0,0,0,0,0,0,-2.7529,-2.7526,-2.7506,-2.7574,-2.7585,-2.7586,-2.7623,-2.7598,-2.762,-2.7613,-2.7588,-2.759,-2.765,-2.7652,-2.7613,-2.7719,-2.7671,-2.768,-2.7715,-2.773,-2.7741,-2.7739,-2.7557,0,0,0,0,0,-2.7551,-2.7584,-2.758,-2.764,-2.7647,-2.7634,-2.7651,-2.7635,-2.7646,-2.7651,-2.7651,-2.7663,-2.7691,-2.7711,-2.7737,-2.781,-2.781,-2.7844,-2.7856,-2.7866,-2.7873,-2.791,-2.7924,-2.7768,-2.7767,-2.7767,0,0,-2.7599,-2.7601,-2.7624,-2.7654,-2.7661,-2.7695,-2.7639,-2.7678,-2.7702,-2.7657,-2.7708,-2.7709,-2.772,-2.7784,-2.7812,-2.7788,-2.7917,-2.7874,-2.7882,-2.7884,-2.7918,-2.7933,-2.7946,-2.7772,-2.7771,-2.7771,0,0,-2.7702,-2.7708,-2.7757,-2.7765,-2.7776,-2.7767,-2.7779,-2.7782,-2.7781,-2.7832,-2.7797,-2.7827,-2.7877,-2.7886,-2.7897,-2.8002,-2.7974,-2.8012,-2.8072,-2.8108,-2.812,-2.8131,-2.8167,-2.818,-2.802,-2.802,-2.802,0,-2.7759,-2.7809,-2.7786,-2.7827,-2.784,-2.7799,-2.7849,-2.7858,-2.7877,-2.7887,-2.786,-2.7921,-2.7926,-2.799,-2.8016,-2.8027,-2.8039,-2.801,-2.8121,-2.8131,-2.8141,-2.8174,-2.8188,-2.8024,-2.8024,-2.8023,-2.8023,0,-2.7878,-2.7913,-2.7951,-2.797,-2.7988,-2.8033,-2.8017,-2.8038,-2.802,-2.8013,-2.8065,-2.8069,-2.8095,-2.8109,-2.8093,-2.8171,-2.8155,-2.8125,-2.8075,-2.816,-2.8191,-2.8204,-2.803,-2.8029,-2.8027,-2.8026,0,0,-2.8024,-2.8028,-2.8043,-2.8049,-2.8058,-2.8084,-2.8127,-2.8151,-2.8169,-2.8183,-2.8218,-2.8261,-2.8232,-2.8245,-2.8229,-2.826,-2.834,-2.8226,-2.8225,-2.8245,-2.8425,-2.8446,-2.8462,-2.8323,-2.8325,-2.8327,-2.8423,0,-2.8124,-2.8197,-2.8177,-2.8249,-2.828,-2.8241,-2.8278,-2.8287,-2.8282,-2.8307,-2.8302,-2.8331,-2.8292,-2.8299,-2.8329,-2.8325,-2.8376,-2.8318,-2.8353,-2.8355,-2.835,-2.8478,-2.8501,-2.8592,-2.8435,-2.8437,-2.8439,0,-2.8251,-2.8269,-2.8344,-2.8345,-2.8357,-2.8391,-2.841,-2.8435,-2.8444,-2.8438,-2.8452,-2.8429,-2.847,-2.8421,-2.8477,-2.8438,-2.8451,-2.8451,-2.8454,-2.8455,-2.8401,-2.8481,-2.8621,-2.8633,-2.8458,-2.8457,-2.8455,0,-2.8348,-2.8391,-2.8441,-2.8448,-2.8451,-2.8475,-2.8478,-2.8484,-2.8499,-2.8516,-2.8525,-2.8548,-2.856,-2.8577,-2.856,-2.8527,-2.8618,-2.8569,-2.8613,-2.8614,-2.8633,-2.8632,-2.8775,-2.8645,-2.8645,-2.8645,-2.8644,0,-2.8461,-2.8508,-2.8484,-2.8515,-2.8565,-2.8542,-2.8593,-2.8591,-2.8597,-2.8626,-2.8594,-2.8622,-2.8599,-2.8625,-2.8612,-2.8659,-2.8665,-2.8661,-2.8656,-2.8663,-2.8663,-2.867,-2.8663,-2.8648,-2.8647,-2.8647,-2.8646,0,-2.8578,-2.8564,-2.8615,-2.8613,-2.8614,-2.8651,-2.8649,-2.8677,-2.8669,-2.8706,-2.8714,-2.8702,-2.873,-2.8715,-2.8745,-2.8737,-2.8797,-2.8785,-2.8793,-2.879,-2.8834,-2.883,-2.8985,-2.9004,-2.8864,-2.8865,-2.8866,0,-2.865,-2.8685,-2.8686,-2.8703,-2.8707,-2.8735,-2.875,-2.8728,-2.8744,-2.8756,-2.8782,-2.8808,-2.8827,-2.8874,-2.8868,-2.889,-2.8878,-2.8931,-2.8881,-2.8885,-2.8876,-2.8873,-2.8876,-2.894,-2.8942,-2.8943,-2.8944,0,-2.8779,-2.877,-2.8792,-2.8812,-2.883,-2.8844,-2.8856,-2.8872,-2.885,-2.887,-2.8898,-2.8913,-2.8942,-2.8967,-2.8986,-2.8989,-2.8963,-2.896,-2.8971,-2.8977,-2.898,-2.8977,-2.8819,-2.8956,-2.8955,-2.8954,-2.8954,-2.8953,-2.8875,-2.8903,-2.8908,-2.8933,-2.8939,-2.895,-2.8976,-2.897,-2.8993,-2.9015,-2.9001,-2.9033,-2.904,-2.9062,-2.9068,-2.9093,-2.9071,-2.9088,-2.9092,-2.9096,-2.9101,-2.8977,-2.9096,-2.9096,-2.9096,-2.9095,-2.9095,0,-2.9001,-2.9001,-2.9025,-2.9041,-2.9061,-2.9034,-2.9045,-2.9063,-2.9092,-2.91,-2.9119,-2.915,-2.9174,-2.9169,-2.9191,-2.9212,-2.92,-2.9218,-2.9215,-2.9216,-2.912,-2.9107,-2.9227,-2.9227,-2.9227,-2.9227,-2.9227,-2.9227,-2.9068,-2.9114,-2.9105,-2.9153,-2.9153,-2.9184,-2.9193,-2.9203,-2.9208,-2.9244,-2.9264,-2.926,-2.9263,-2.9284,-2.9304,-2.9302,-2.9311,-2.9333,-2.9326,-2.9236,-2.9223,-2.9211,-2.9198,-2.9335,-2.9335,-2.9419,-2.942,-2.9421]},{"header":{"parameterUnit":"m.s-1","parameterCategory":1,"la1":30.2991,"la2":30.254,"lo1":-89.0895,"lo2":-89.0444,"dy":0.0017,"dx":0.0017,"nx":28,"ny":28,"refTime":"2024-03-11T21:00:00:Z","depth":0,"parameterNumber":3,"parameterNumberName":"V-component_of_WINDS"},"data":[0,0,0,0,0,0,0,0,0,0,0,0,0,0,0,0,0,0,0,0,0,0,0,0,0,0,0,0,0,0,0,0,0,0,0,0,0,0,0,0,0,0,0,0,0,0,0,0,0,0,0,0,0,0,0,0,0,0,1.0448,1.0449,0,1.0535,1.0536,1.0537,1.0549,1.0549,1.0548,1.0547,1.0637,1.064,1.0643,0,0,0,0,0,0,0,0,0,0,0,0,0,1.0294,1.0297,1.0448,1.0449,1.045,1.0534,1.0536,1.0537,1.055,1.0549,1.0548,1.0547,1.0636,1.064,1.0644,0,0,0,0,0,0,0,0,0,0,0,0,0,1.0369,1.0298,1.0447,1.0466,1.0469,1.0534,1.0536,1.0537,1.055,1.0549,1.0547,1.0546,1.0635,1.064,1.0644,1.0697,0,0,1.0659,1.0661,0,0,0,0,0,0,0,0,1.0365,1.0374,1.0462,1.0465,1.0468,1.053,1.0515,1.0591,1.055,1.0519,1.0547,1.0546,1.0603,1.061,1.0629,1.0701,1.0705,1.0659,1.0662,1.0664,1.0665,0,0,0,0,0,0,0,1.0359,1.0371,1.0482,1.0464,1.0467,1.0471,1.048,1.0529,1.0567,1.0522,1.0523,1.0533,1.0604,1.0624,1.0631,1.0707,1.0659,1.0663,1.0666,1.0668,1.0828,1.0829,0,0,0,0,0,0,1.0351,1.0366,1.0479,1.0485,1.0412,1.0475,1.0485,1.0511,1.0566,1.0573,1.0534,1.0533,1.0617,1.0626,1.0634,1.0701,1.0664,1.0668,1.0671,1.0826,1.0828,1.083,0,0,0,0,0,0,1.0347,1.036,1.0476,1.0426,1.0441,1.0479,1.0508,1.0514,1.0534,1.0575,1.0582,1.0548,1.0616,1.0628,1.0682,1.0704,1.0671,1.0675,1.0825,1.0827,1.0829,1.0833,0,0,0,0,0,0,1.0343,1.0359,1.0379,1.0426,1.0443,1.0521,1.0509,1.0516,1.0542,1.0542,1.059,1.0597,1.0616,1.0675,1.0686,1.071,1.0678,1.0823,1.0826,1.0828,1.0832,1.0836,1.0839,0,0,0,0,0,1.0337,1.0377,1.038,1.0394,1.0469,1.0523,1.0532,1.0554,1.0544,1.0565,1.0591,1.0595,1.0699,1.068,1.0693,1.0719,1.0822,1.0825,1.0828,1.083,1.0835,1.0839,0,0,0,0,0,0,1.0333,1.0384,1.0388,1.0444,1.0479,1.0525,1.0552,1.0558,1.0597,1.0595,1.062,1.0631,1.0684,1.0706,1.0684,1.0773,1.076,1.0766,1.0757,1.0762,1.0765,1.0759,1.0682,0,0,0,0,0,1.0338,1.0377,1.0419,1.0465,1.0482,1.0514,1.0538,1.0551,1.0588,1.0603,1.0633,1.067,1.0711,1.0737,1.0777,1.0834,1.0846,1.0858,1.0862,1.0865,1.087,1.0903,1.091,1.084,1.084,1.084,0,0,1.035,1.0383,1.0406,1.0465,1.0493,1.0533,1.0526,1.0568,1.0599,1.061,1.0663,1.0686,1.0728,1.0784,1.081,1.0805,1.0892,1.0869,1.0871,1.0875,1.0907,1.0914,1.092,1.0842,1.0842,1.0842,0,0,1.0393,1.0421,1.0462,1.0491,1.0534,1.0555,1.0564,1.0609,1.0625,1.0679,1.0688,1.0724,1.0794,1.0824,1.0848,1.0901,1.0907,1.0913,1.0933,1.0965,1.0971,1.0976,1.0996,1.1002,1.0918,1.0918,1.0918,0,1.0403,1.0462,1.0483,1.0525,1.0551,1.0562,1.0605,1.0632,1.0686,1.0704,1.0697,1.0785,1.0814,1.0877,1.089,1.0909,1.0922,1.0909,1.0968,1.0973,1.0978,1.0998,1.1005,1.0919,1.0919,1.0919,1.0919,0,1.0473,1.0514,1.0543,1.0594,1.0623,1.0665,1.0693,1.072,1.0731,1.0752,1.0807,1.0842,1.0889,1.0905,1.0916,1.097,1.0966,1.0963,1.095,1.0985,1.1004,1.1011,1.092,1.092,1.0919,1.0919,0,0,1.0516,1.0578,1.0588,1.0612,1.066,1.0693,1.0735,1.0782,1.0805,1.0841,1.0879,1.0937,1.0935,1.0962,1.0976,1.1004,1.1045,1.0998,1.0999,1.1007,1.1109,1.1112,1.112,1.1049,1.105,1.1051,1.1106,0,1.0565,1.0641,1.0661,1.0726,1.0765,1.0776,1.0814,1.0847,1.0869,1.0905,1.0929,1.097,1.0963,1.098,1.1008,1.1034,1.1066,1.1031,1.1084,1.1086,1.1075,1.113,1.1133,1.1182,1.1113,1.1114,1.1115,0,1.0633,1.0671,1.074,1.0783,1.08,1.0833,1.0877,1.0912,1.095,1.0964,1.0994,1.1006,1.1051,1.1035,1.1098,1.1074,1.1097,1.1113,1.1115,1.1122,1.1104,1.1139,1.1199,1.1206,1.1127,1.1126,1.1125,0,1.0659,1.0727,1.0777,1.0797,1.0849,1.0872,1.0894,1.0932,1.0958,1.0997,1.1014,1.1057,1.1081,1.1115,1.1138,1.1123,1.1199,1.1185,1.1213,1.1212,1.123,1.1228,1.1295,1.1242,1.1242,1.1242,1.1241,0,1.0713,1.0755,1.079,1.0821,1.0869,1.0891,1.0937,1.096,1.0993,1.103,1.1041,1.1075,1.1102,1.114,1.1158,1.1208,1.1219,1.1232,1.1236,1.1232,1.123,1.1248,1.1246,1.1244,1.1243,1.1243,1.1242,0,1.0751,1.0775,1.0831,1.0875,1.0887,1.092,1.0958,1.0989,1.101,1.1056,1.1068,1.1101,1.1146,1.1172,1.1228,1.1241,1.1297,1.1299,1.1284,1.1286,1.1313,1.1311,1.1395,1.1407,1.1345,1.1345,1.1346,0,1.0784,1.0816,1.0864,1.0888,1.0911,1.0951,1.0978,1.1001,1.1029,1.1075,1.1101,1.1146,1.1184,1.1255,1.1285,1.1328,1.1332,1.1358,1.1339,1.1333,1.1334,1.1333,1.1336,1.1362,1.1363,1.1363,1.1364,0,1.0841,1.0851,1.089,1.0933,1.0964,1.0999,1.1034,1.1054,1.1082,1.1113,1.1159,1.1188,1.1245,1.1291,1.1336,1.136,1.1367,1.1369,1.1378,1.1375,1.1365,1.1372,1.1295,1.1368,1.1367,1.1367,1.1367,1.1367,1.0879,1.0908,1.0946,1.0989,1.1017,1.1049,1.108,1.1105,1.1144,1.1192,1.1203,1.1252,1.1289,1.1352,1.1376,1.1415,1.141,1.1423,1.1427,1.143,1.1431,1.1357,1.1423,1.1423,1.1423,1.1423,1.1423,0,1.0937,1.0962,1.1,1.1049,1.1082,1.1084,1.1123,1.1151,1.1193,1.1228,1.1265,1.1318,1.1361,1.1394,1.1439,1.1464,1.1468,1.1475,1.1474,1.148,1.1432,1.142,1.1471,1.1471,1.1471,1.1471,1.1471,1.1471,1.0972,1.1023,1.1038,1.1103,1.1127,1.1175,1.1197,1.1226,1.1254,1.1313,1.1349,1.137,1.1404,1.1451,1.1492,1.15,1.1517,1.1524,1.1533,1.1488,1.1483,1.1478,1.1467,1.1527,1.1527,1.1577,1.1578,1.1578]}]]